Regional Weather Roundup
Issued by NWS

Home | Current Version | Previous Version | Graphics & Text | Print | Product List | Glossary On
Versions: 1 2 3 4 5 6 7 8 9 10 11 12 13 14 15 16 17 18 19 20 21 22 23 24 25 26 27
000
ASUS45 KCYS 261910
RWRWY

WYOMING REGIONAL WEATHER ROUNDUP
NATIONAL WEATHER SERVICE CHEYENNE WY
100 PM MDT MON SEP 26 2016

NOTE:  "FAIR" INDICATES FEW OR NO CLOUDS BELOW 12,000 FEET
WITH NO SIGNIFICANT WEATHER AND/OR OBSTRUCTIONS TO VISIBILITY.

WYZ001-262000-
YELLOWSTONE NATIONAL PARK

CITY           SKY/WX    TMP DP  RH WIND       PRES   REMARKS
LK YELLOWSTONE   N/A     52  39  61 VRB3      30.55F
W YELLOWSTONE  NOT AVBL

$$
WYZ002>013-054>058-071-098>099-262000-
NORTHERN WYOMING

CITY           SKY/WX    TMP DP  RH WIND       PRES   REMARKS
JACKSON        SUNNY     61  37  41 CALM      30.49F
CODY           FAIR      67  41  38 CALM      30.37F
GREYBULL       FAIR      64  46  52 CALM      30.35F
WORLAND        FAIR      67  43  41 NE3       30.35F
SHERIDAN       FAIR      70  45  40 N6        30.32F
BUFFALO        FAIR      66  39  37 VRB5      30.37F
GILLETTE       FAIR      66  45  46 NW12G20   30.33F
HULETT         FAIR      64  41  42 N10G16    30.33S
NEWCASTLE      FAIR      64  37  36 NW15G23   30.32F

$$
WYZ014>020-022>026-101>103-262000-
CENTRAL WYOMING

CITY           SKY/WX    TMP DP  RH WIND       PRES   REMARKS
BIG PINEY      FAIR      63  36  36 S6        30.47F
PINEDALE       FAIR      63  34  34 SW5       30.48F
DUBOIS         FAIR      64  37  36 SE7       30.44F
LANDER         FAIR      64  40  41 CALM      30.39F
RIVERTON       FAIR      60  42  51 VRB5      30.41F
CASPER         FAIR      66  39  37 SW8       30.38F
DOUGLAS        FAIR      68  37  32 W10G22    30.36F

$$
WYZ021-027>030-104>119-262000-
SOUTHERN WYOMING

CITY           SKY/WX    TMP DP  RH WIND       PRES   REMARKS
EVANSTON       FAIR      62  35  36 W5        30.49F
FORT BRIDGER   FAIR      65  38  36 W6        30.50F
ROCK SPRINGS   FAIR      61  37  41 S5        30.47F
DIXON          FAIR      63  34  33 NW3       30.50F
RAWLINS        FAIR      64  35  34 SW10G20   30.47F
SARATOGA       FAIR      64  34  32 W13G20    30.48F
LARAMIE        FAIR      61  34  36 N6        30.46F
CHEYENNE       FAIR      68  33  27 NW14G25   30.39F
TORRINGTON     FAIR      71  35  26 NW7       30.32F
PINE BLUFFS    FAIR      70  32  24 NW9G17    30.37F

$$




USA.gov is the U.S. government's official web portal to all federal, state and local government web resources and services.